カタログに戻る

FLOCK 4Q 30

運用中科学PO
NORAD 58286·PAYLOAD·🇺🇸 United States

打ち上げ Nov 11, 2023 から Vandenberg Space Force Base

Loading…

次のパス (今後24時間)

TLE

最新Source: Space-Track

元期: Sep 14, 2026, 05:10 UTC

1 58286U 23174AG  26257.21545297  .00667593  19405-3  15794-2 0  9999
2 58286  97.3785 355.0147 0007119 263.5165  96.5301 15.96744996159796

AllMySatでFLOCK 4Q 30をリアルタイム追跡

Download on the App Store